User: anonymous   Login
Location: Unspecified
(0.0000°N, 0.0000°E)
Time: 20:23:13
(UTC+00:00)
Language:

UWE-3 - Orbit

View from above orbital plane
View from above orbital plane
View from above satellite
View from above satellite

Ground track
Ground track

The orbit data is extracted from the following two-line orbital elements,

1 39446U 13066AG  18175.06799085  .00000242  00000-0  38801-4 0  9990
2 39446  97.5920 196.2187 0070978 152.2196 208.2836 14.78216081246134
Epoch (UTC): 24 June 2018 01:37:54
Eccentricity: 0.0070978
inclination: 97.5920°
perigee height: 585 km
apogee height: 685 km
right ascension of ascending node: 196.2187°
argument of perigee: 152.2196°
revolutions per day: 14.78216081
mean anomaly at epoch: 208.2836°
orbit number at epoch: 24613

The dashed part of the orbit path shows where the satellite is in the earth's shadow,  

DLR